SQ9IWE-13 Weather Reports


Display with metric or nautical units.
time (UTC)temp
F
wind
direction
speed
MPH
gust
MPH
rain 1hr
in
rain 24hr
in
rain mn
in
humidity
%
barometer
mb
20260904211001 74 0 0.0 0.0 0.00 0.00 0.00 62 1008.5
20260904210001 74 0 0.0 0.0 0.00 0.00 0.00 62 1008.7
20260904205001 74 0 0.0 0.0 0.00 0.00 0.00 62 1008.7
20260904204001 74 0 0.0 0.0 0.00 0.00 0.00 63 1008.6
20260904203001 74 0 0.0 0.0 0.00 0.00 0.00 62 1008.6
20260904202001 75 0 0.0 0.0 0.00 0.00 0.00 61 1008.6
20260904201001 74 0 0.0 0.0 0.00 0.00 0.00 62 1008.8
20260904200001 74 0 0.0 0.0 0.00 0.00 0.00 63 1008.8
20260904194001 73 0 0.0 0.0 0.00 0.00 0.00 65 1009.1
20260904193001 73 0 0.0 0.0 0.00 0.00 0.00 66 1009.1
20260904192001 73 0 0.0 0.0 0.00 0.00 0.00 66 1009.2
20260904191001 73 0 0.0 0.0 0.00 0.00 0.00 66 1009.4
20260904190001 72 0 0.0 0.0 0.00 0.00 0.00 67 1009.5
20260904183000 72 0 0.0 0.0 0.00 0.00 0.00 67 1010.0
20260904182000 72 0 0.0 0.0 0.00 0.00 0.00 67 1010.1
20260904181000 73 0 0.0 0.0 0.00 0.00 0.00 67 1010.2
20260904180000 73 0 0.0 0.0 0.00 0.00 0.00 66 1010.0
20260904175000 73 0 0.0 0.0 0.00 0.00 0.00 66 1009.9
20260904174000 74 0 0.0 0.0 0.00 0.00 0.00 65 1009.8
20260904173000 74 0 0.0 0.0 0.00 0.00 0.00 64 1009.8
20260904172000 74 0 0.0 0.0 0.00 0.00 0.00 63 1009.7
20260904171000 75 0 0.0 0.0 0.00 0.00 0.00 63 1009.8
20260904170000 75 0 0.0 0.0 0.00 0.00 0.00 62 1009.7
20260904165000 76 0 0.0 0.0 0.00 0.00 0.00 61 1009.9
20260904164000 76 0 0.0 0.0 0.00 0.00 0.00 61 1010.0
20260904163000 77 0 0.0 0.0 0.00 0.00 0.00 60 1010.0
20260904162000 77 0 0.0 0.0 0.00 0.00 0.00 60 1010.2
20260904161001 77 0 0.0 0.0 0.00 0.00 0.00 60 1010.2
20260904160001 77 0 0.0 0.0 0.00 0.00 0.00 59 1010.3
20260904155001 78 0 0.0 0.0 0.00 0.00 0.00 59 1010.3
20260904154001 78 0 0.0 0.0 0.00 0.00 0.00 58 1010.5
20260904153001 79 0 0.0 0.0 0.00 0.00 0.00 58 1010.7
20260904152001 79 0 0.0 0.0 0.00 0.00 0.00 58 1010.9
20260904151001 78 0 0.0 0.0 0.00 0.00 0.00 59 1011.0
20260904150001 77 0 0.0 0.0 0.00 0.00 0.00 60 1011.1
20260904143001 77 0 0.0 0.0 0.00 0.00 0.00 61 1011.5
20260904142001 77 0 0.0 0.0 0.00 0.00 0.00 60 1011.8
20260904140001 77 0 0.0 0.0 0.00 0.00 0.00 60 1011.9
20260904135001 77 0 0.0 0.0 0.00 0.00 0.00 61 1011.9
20260904134001 77 0 0.0 0.0 0.00 0.00 0.00 62 1012.0
20260904133001 77 0 0.0 0.0 0.00 0.00 0.00 61 1012.3
20260904132001 77 0 0.0 0.0 0.00 0.00 0.00 61 1012.4
20260904131001 78 0 0.0 0.0 0.00 0.00 0.00 60 1012.5
20260904130001 77 0 0.0 0.0 0.00 0.00 0.00 61 1012.7
20260904125001 76 0 0.0 0.0 0.00 0.00 0.00 62 1012.7
20260904124001 76 0 0.0 0.0 0.00 0.00 0.00 62 1012.8
20260904123001 76 0 0.0 0.0 0.00 0.00 0.00 61 1013.0
20260904122001 75 0 0.0 0.0 0.00 0.00 0.00 61 1013.3
20260904121000 74 0 0.0 0.0 0.00 0.00 0.00 63 1013.4
20260904120001 75 0 0.0 0.0 0.00 0.00 0.00 63 1013.5
20260904115000 74 0 0.0 0.0 0.00 0.00 0.00 63 1013.8
20260904114000 74 0 0.0 0.0 0.00 0.00 0.00 62 1013.9
20260904113000 74 0 0.0 0.0 0.00 0.00 0.00 62 1014.0
20260904112000 75 0 0.0 0.0 0.00 0.00 0.00 61 1014.0
20260904111000 76 0 0.0 0.0 0.00 0.00 0.00 60 1014.1
20260904110000 80 0 0.0 0.0 0.00 0.00 0.00 55 1014.2
20260904105000 79 0 0.0 0.0 0.00 0.00 0.00 56 1014.3
20260904104000 78 0 0.0 0.0 0.00 0.00 0.00 58 1014.3
20260904103000 77 0 0.0 0.0 0.00 0.00 0.00 58 1014.5
20260904102000 78 0 0.0 0.0 0.00 0.00 0.00 57 1014.7
20260904101000 77 0 0.0 0.0 0.00 0.00 0.00 58 1014.8
20260904100001 76 0 0.0 0.0 0.00 0.00 0.00 59 1014.9
20260904095001 77 0 0.0 0.0 0.00 0.00 0.00 58 1015.2
20260904094001 77 0 0.0 0.0 0.00 0.00 0.00 58 1015.2
20260904093001 78 0 0.0 0.0 0.00 0.00 0.00 58 1015.2
20260904092001 76 0 0.0 0.0 0.00 0.00 0.00 60 1015.4
20260904091001 78 0 0.0 0.0 0.00 0.00 0.00 57 6.0
20260904090001 78 0 0.0 0.0 0.00 0.00 0.00 57 1015.5
20260904085001 75 0 0.0 0.0 0.00 0.00 0.00 61 1015.5
20260904084001 75 0 0.0 0.0 0.00 0.00 0.00 60 1015.6
20260904083001 79 0 0.0 0.0 0.00 0.00 0.00 58 1015.7
20260904082001 79 0 0.0 0.0 0.00 0.00 0.00 57 1015.9
20260904081001 78 0 0.0 0.0 0.00 0.00 0.00 59 1016.0
20260904080001 73 0 0.0 0.0 0.00 0.00 0.00 64 1016.0
20260904075001 70 0 0.0 0.0 0.00 0.00 0.00 70 1016.1
20260904074001 69 0 0.0 0.0 0.00 0.00 0.00 71 1016.1
20260904073001 68 0 0.0 0.0 0.00 0.00 0.00 71 1016.2
20260904072001 68 0 0.0 0.0 0.00 0.00 0.00 71 1016.5
20260904071001 68 0 0.0 0.0 0.00 0.00 0.00 71 1016.3
20260904070001 67 0 0.0 0.0 0.00 0.00 0.00 72 1016.5
20260904065001 67 0 0.0 0.0 0.00 0.00 0.00 73 1016.4
20260904064001 67 0 0.0 0.0 0.00 0.00 0.00 74 1016.4
20260904063001 66 0 0.0 0.0 0.00 0.00 0.00 74 1016.2
20260904062001 66 0 0.0 0.0 0.00 0.00 0.00 74 1016.2
20260904061001 65 0 0.0 0.0 0.00 0.00 0.00 75 1016.2
20260904060001 65 0 0.0 0.0 0.00 0.00 0.00 76 1016.1
20260904055001 65 0 0.0 0.0 0.00 0.00 0.00 76 1016.0
20260904054001 65 0 0.0 0.0 0.00 0.00 0.00 75 1015.8
20260904053000 65 0 0.0 0.0 0.00 0.00 0.00 75 1016.1
20260904052000 65 0 0.0 0.0 0.00 0.00 0.00 75 1016.0
20260904051000 65 0 0.0 0.0 0.00 0.00 0.00 75 1016.0
20260904050000 64 0 0.0 0.0 0.00 0.00 0.00 76 1016.0
20260904045000 64 0 0.0 0.0 0.00 0.00 0.00 77 1016.0
20260904044000 64 0 0.0 0.0 0.00 0.00 0.00 77 1016.0
20260904043000 63 0 0.0 0.0 0.00 0.00 0.00 77 1016.0
20260904042000 63 0 0.0 0.0 0.00 0.00 0.00 77 1015.8
20260904041000 63 0 0.0 0.0 0.00 0.00 0.00 77 1015.9
20260904040000 64 0 0.0 0.0 0.00 0.00 0.00 76 1015.9
20260904035000 63 0 0.0 0.0 0.00 0.00 0.00 76 1016.1
20260904034001 63 0 0.0 0.0 0.00 0.00 0.00 76 1016.3
20260904033001 64 0 0.0 0.0 0.00 0.00 0.00 76 1016.1
20260904032001 64 0 0.0 0.0 0.00 0.00 0.00 75 1016.1
20260904031001 64 0 0.0 0.0 0.00 0.00 0.00 75 1016.1
20260904030001 64 0 0.0 0.0 0.00 0.00 0.00 74 1016.0
20260904025001 64 0 0.0 0.0 0.00 0.00 0.00 73 1016.0
20260904024001 64 0 0.0 0.0 0.00 0.00 0.00 73 1016.2
20260904023001 64 0 0.0 0.0 0.00 0.00 0.00 72 1016.1
20260904022001 64 0 0.0 0.0 0.00 0.00 0.00 72 1016.0
20260904021001 65 0 0.0 0.0 0.00 0.00 0.00 72 1015.9
20260904015001 65 0 0.0 0.0 0.00 0.00 0.00 71 1016.0
20260904014001 65 0 0.0 0.0 0.00 0.00 0.00 71 6.0
20260904013001 65 0 0.0 0.0 0.00 0.00 0.00 71 1016.1
20260904012001 65 0 0.0 0.0 0.00 0.00 0.00 70 1016.1
20260904011001 64 0 0.0 0.0 0.00 0.00 0.00 70 1016.0
20260904010001 64 0 0.0 0.0 0.00 0.00 0.00 70 11.0
20260904005001 64 0 0.0 0.0 0.00 0.00 0.00 71 1016.1
20260904004001 65 0 0.0 0.0 0.00 0.00 0.00 70 1016.2
20260904002001 65 0 0.0 0.0 0.00 0.00 0.00 70 1016.3
20260904001001 65 0 0.0 0.0 0.00 0.00 0.00 70 1016.4
20260904000001 64 0 0.0 0.0 0.00 0.00 0.00 70 1016.5
20260903233001 64 0 0.0 0.0 0.00 0.00 0.00 71 1016.6
20260903232000 64 0 0.0 0.0 0.00 0.00 0.00 71 1016.6
20260903231000 64 0 0.0 0.0 0.00 0.00 0.00 72 1016.6
20260903230000 64 0 0.0 0.0 0.00 0.00 0.00 73 1016.7
20260903224000 63 0 0.0 0.0 0.00 0.00 0.00 74 1016.7
20260903223000 63 0 0.0 0.0 0.00 0.00 0.00 74 1016.7
20260903222000 63 0 0.0 0.0 0.00 0.00 0.00 74 1016.8
20260903221000 62 0 0.0 0.0 0.00 0.00 0.00 75 1016.8
20260903220000 62 0 0.0 0.0 0.00 0.00 0.00 75 1016.8
20260903215000 62 0 0.0 0.0 0.00 0.00 0.00 76 1017.0
20260903214000 62 0 0.0 0.0 0.00 0.00 0.00 76 1016.8
20260903213000 62 0 0.0 0.0 0.00 0.00 0.00 77 1016.9